Location: Santa Maria di Sala
(45.5070°N, 12.0300°E)
Time: 00:56:14
(UTC+02:00)

SR - Visible Passes

Search period start: 29 May 2022 00:00
Search period end: 08 June 2022 00:00
Orbit: 574 x 879 km, 66.7° (Epoch: 28 May)

Date Brightness Start Highest point End Pass type
(mag) Time Alt. Az. Time Alt. Az. Time Alt. Az.
30 May ? 04:18:58 10° S 04:23:13 32° ESE 04:27:50 10° NE visible
31 May ? 03:30:38 10° SE 03:33:35 16° ESE 03:36:41 10° ENE visible
01 Jun ? 04:20:05 10° SSW 04:24:50 59° ESE 04:30:04 10° NE visible
02 Jun ? 03:31:20 13° SSE 03:35:01 30° ESE 03:39:32 10° NE visible
03 Jun ? 02:42:41 10° SE 02:45:24 15° ESE 02:48:14 10° ENE visible
03 Jun ? 04:22:02 12° SW 04:26:36 80° WNW 04:32:02 10° NNE visible
04 Jun ? 03:33:19 20° S 03:36:36 54° ESE 03:41:48 10° NE visible
05 Jun ? 02:44:34 20° SSE 02:46:48 27° ESE 02:51:13 10° NE visible
05 Jun ? 04:23:56 11° WSW 04:28:34 47° NW 04:33:50 10° NNE visible
06 Jun ? 01:55:46 12° ESE 01:57:13 14° ESE 01:59:44 10° ENE visible
06 Jun ? 03:35:08 22° SW 03:38:21 86° WNW 03:43:48 10° NNE visible
07 Jun ? 02:46:17 31° S 02:48:21 50° ESE 02:53:32 10° NE visible
07 Jun ? 04:26:13 10° WSW 04:30:42 30° NW 04:35:32 10° NNE visible
